Temp
25 25 25 25 24 25 25 26 26 26 26 26 26 26 26 25 23 21 21 21 21 21 20 20 20 20 20 19 19 18 18 16 13 14 15 15 15 15 15 14 13 13 12
25 25 25 25 25 25 25 25 26 26 26 26 25 26 26 25 24 22 21 20 21 20 20 20 20 20 19 19 18 18 17 16 14 13 14 14 14 15 13 13 12 12 11
25 25 24 24 24 24 24 24 25 26 25 25 25 25 25 24 23 21 21 20 20 20 19 20 20 20 19 19 18 18 17 16 15 13 12 14 14 13 13 13 11 11 10
26 25 25 24 24 24 24 24 25 25 25 25 25 25 24 23 22 21 20 20 20 20 20 20 20 20 19 19 18 17 16 15 15 14 13 13 13 13 13 11 10 11 10
26 26 25 25 24 24 24 24 25 25 25 25 25 24 23 22 21 21 21 20 20 20 20 20 20 19 19 18 17 16 15 14 14 13 13 13 12 12 12 10 9 10 11
27 26 26 25 25 24 24 25 25 26 25 25 24 24 24 21 21 21 21 21 20 20 20 19 19 19 18 17 16 15 15 13 13 12 12 11 12 12 12 10 9 10 11
28 27 26 25 25 25 25 25 25 25 25 25 25 24 22 21 22 21 20 20 20 20 20 19 19 18 18 16 16 16 15 14 14 13 12 13 12 13 12 11 10 9 10
28 27 27 25 24 25 26 26 25 25 26 25 24 23 22 21 21 21 21 20 19 20 19 19 18 18 17 16 16 15 14 14 14 14 14 14 14 13 12 11 9 10 10
27 26 25 25 24 26 26 26 26 25 25 24 23 22 21 21 21 20 20 20 20 19 19 18 17 17 16 15 15 14 14 14 14 15 14 15 14 14 12 11 9 10 10
25 25 25 25 26 26 26 27 25 25 23 22 21 22 21 21 20 20 19 19 19 18 17 17 17 16 16 15 15 14 13 13 13 14 14 15 14 14 13 11 9 9 9
25 25 25 26 26 26 24 22 23 22 22 22 21 20 20 20 19 19 19 19 19 18 17 17 16 16 16 15 14 14 13 13 13 13 14 14 14 14 13 12 11 9 9
26 25 25 24 23 23 23 22 22 23 22 21 20 18 18 19 18 18 19 18 18 18 17 17 16 16 15 15 14 13 13 13 13 13 14 14 14 13 13 14 12 11 9
24 23 23 23 23 22 23 23 22 21 21 19 18 17 17 17 17 17 17 18 18 17 17 16 16 16 15 14 13 13 13 13 13 13 12 13 13 14 14 14 13 12 10
22 22 22 22 21 22 21 21 20 20 20 19 18 16 16 17 17 17 17 17 17 17 16 16 16 15 14 13 13 13 12 12 12 12 12 13 14 14 14 14 13 13 12
21 21 20 20 20 19 19 19 20 20 20 20 19 19 17 16 17 17 17 17 17 16 16 16 15 14 14 13 12 12 12 12 12 12 12 13 13 14 14 14 13 13 12
20 20 19 18 18 19 19 17 19 20 20 20 20 20 19 19 17 17 17 17 17 16 16 15 13 13 12 12 12 12 12 12 12 12 12 13 12 13 13 14 14 12 12
20 19 19 19 19 19 18 18 17 17 19 19 19 19 19 18 17 17 16 16 16 16 15 14 13 12 12 12 12 12 11 11 12 12 12 12 13 13 13 13 13 13 12
21 21 20 19 20 19 18 18 18 18 17 17 17 17 17 17 17 17 16 16 15 15 14 13 12 12 12 12 11 11 11 11 11 12 12 12 12 12 12 12 13 13 13
21 21 21 20 20 19 18 17 17 16 16 15 16 16 16 16 16 16 16 16 15 14 13 13 12 12 12 11 12 11 11 11 11 11 12 12 12 13 12 12 13 13 12
21 21 20 20 18 18 17 16 16 16 15 15 15 15 15 16 16 15 16 15 14 14 13 13 12 12 11 11 11 11 11 11 11 11 11 12 12 12 12 12 12 13 12
21 21 20 20 19 18 18 16 16 16 15 15 15 15 16 16 15 15 15 15 14 13 13 12 12 11 11 11 10 10 10 10 10 11 11 11 12 12 12 12 12 13 13
21 22 21 21 20 19 19 17 16 16 15 15 15 15 15 15 15 15 14 14 13 13 12 12 11 11 10 10 10 10 9 9 10 10 11 11 12 12 12 12 12 12 13
21 21 21 21 20 19 18 17 16 16 15 15 15 15 14 14 15 14 14 13 13 12 12 12 11 10 10 10 10 9 9 9 9 10 10 11 12 12 12 12 12 12 12
21 21 21 21 20 19 19 17 16 17 16 15 15 15 15 14 14 14 14 13 13 12 12 11 11 10 10 10 9 9 8 9 9 10 10 11 11 12 12 12 12 12 11
22 22 22 21 20 19 18 18 17 17 15 16 16 16 15 15 14 14 13 13 12 12 11 11 10 10 10 9 9 8 8 9 9 10 10 10 11 12 12 11 11 11 11
22 22 22 21 21 20 19 18 18 17 17 16 16 16 15 15 14 14 13 13 12 12 11 10 10 9 9 9 9 9 9 9 9 9 10 10 11 11 11 11 11 11 10
Height
753 758 763 766 771 775 777 780 784 788 791 793 797 799 797 797 800 795 804 803 809 809 810 810 813 813 812 812 812 813 813 808 802 794 791 787 782 778 774 766 761 753 743
746 752 754 759 763 766 769 773 779 782 786 789 792 793 791 790 789 798 800 803 807 809 810 808 810 812 811 807 805 806 807 804 800 793 787 782 778 773 767 759 753 746 736
740 744 749 752 755 757 763 769 773 777 780 784 787 788 788 787 789 793 796 801 803 804 806 806 805 806 810 810 806 804 802 800 796 792 785 780 773 769 759 753 747 737 725
731 735 740 743 748 754 760 764 768 771 776 779 780 782 785 785 788 790 796 799 801 802 803 804 804 805 806 806 803 800 798 795 792 789 784 777 772 765 759 751 738 727 716
723 728 729 736 744 752 757 760 764 768 771 773 775 776 781 783 783 786 790 793 797 800 802 804 803 804 804 803 802 798 795 793 790 786 782 775 770 763 758 750 742 727 712
714 717 727 734 740 745 751 757 760 763 766 769 770 776 776 782 787 791 796 794 793 797 802 803 801 803 803 802 801 797 795 792 788 785 780 774 769 763 756 749 741 729 711
709 717 722 728 733 738 746 752 755 759 764 767 768 769 774 781 782 787 793 797 797 797 800 799 802 801 800 802 800 795 794 791 787 783 778 773 767 761 755 748 739 731 719
707 712 716 722 728 735 743 747 753 756 758 762 764 769 772 777 782 785 788 788 795 800 800 799 800 800 800 801 798 794 792 789 785 780 777 772 768 762 756 750 740 729 717
701 706 712 719 726 732 738 740 743 750 753 754 757 760 772 774 781 784 790 790 790 789 798 799 799 800 799 799 797 793 791 788 784 780 776 772 767 762 756 750 740 727 715
698 704 710 717 723 729 734 739 743 748 753 760 766 768 770 775 780 787 793 796 795 796 799 800 800 799 798 798 796 793 791 787 783 780 775 771 766 760 756 752 743 733 720
701 707 713 719 724 730 735 740 748 752 758 763 767 772 773 779 783 788 791 792 794 796 798 800 800 799 798 799 797 795 792 789 785 781 776 772 767 762 757 753 747 739 728
704 711 717 721 727 732 738 745 750 754 758 762 769 773 776 781 785 789 790 793 792 796 798 799 800 799 799 798 797 796 793 790 786 782 777 773 768 763 758 754 750 743 733
708 714 721 726 730 735 739 745 748 753 758 763 769 773 777 780 785 788 791 792 793 796 797 798 799 799 799 800 800 796 793 791 788 784 780 776 772 767 762 756 752 746 739
711 718 724 729 733 738 742 746 751 755 759 764 769 774 778 782 784 787 790 793 795 796 797 798 798 799 800 801 799 796 795 793 790 786 783 779 774 769 764 759 753 748 742
715 722 728 732 737 740 745 750 754 758 761 764 769 773 778 782 783 786 789 792 794 796 797 798 799 800 801 801 800 799 797 795 791 788 785 781 777 772 768 764 759 753 748
718 725 730 735 740 744 748 753 757 761 764 767 770 774 777 781 785 788 792 794 795 796 797 799 801 802 803 803 802 800 799 797 793 790 787 784 780 776 772 768 764 760 756
720 726 731 736 741 746 751 754 759 764 766 768 772 775 778 782 786 789 792 794 796 797 798 801 803 804 804 805 804 802 800 799 796 793 789 786 783 780 776 771 769 765 762
723 728 733 738 742 747 751 755 758 763 765 769 772 774 777 782 786 790 794 795 797 800 802 803 804 804 805 806 805 803 802 800 798 795 792 789 786 784 780 776 774 771 768
724 729 734 739 743 747 752 756 759 764 766 768 772 778 782 786 789 792 795 796 798 801 803 804 806 806 806 806 804 804 804 802 801 798 795 792 789 787 784 780 778 776 774
728 732 736 740 745 750 753 756 760 764 767 770 775 779 784 788 791 793 794 798 800 802 803 804 805 807 807 807 806 805 805 803 802 801 798 795 792 790 788 785 782 781 780
731 734 737 742 746 750 754 758 761 765 769 773 777 782 785 789 791 794 797 799 801 803 804 805 806 807 808 808 807 806 806 805 804 803 801 798 795 793 791 789 787 784 784
733 735 737 741 746 751 754 758 762 765 769 775 779 784 788 791 793 796 798 800 802 803 805 806 807 808 808 807 807 807 806 806 806 804 802 800 798 796 794 793 791 789 789
735 737 738 741 745 749 753 757 761 765 769 774 779 783 787 790 794 797 798 801 802 803 806 807 809 809 809 808 807 807 807 807 807 806 804 803 801 799 798 797 795 794 794
734 736 738 740 743 747 751 756 760 764 768 772 776 780 785 788 793 797 799 801 804 805 808 809 810 810 810 809 809 809 809 808 808 807 806 805 803 802 802 801 800 799 799
732 733 737 740 742 745 750 754 759 763 767 770 774 778 783 787 792 796 798 801 804 807 808 811 811 812 812 811 810 810 810 810 809 808 808 808 806 805 805 805 804 804 805
730 732 735 739 741 744 749 753 757 760 764 770 774 778 781 785 790 794 797 800 803 806 808 810 812 813 812 812 811 811 811 811 811 810 810 809 808 808 808 808 808 809 809
Wind_Speed
45 44 41 41 41 41 43 43 43 36 31 30 27 24 23 26 25 12 13 14 17 13 15 12 5 6 5 7 10 11 16 15 7 18 28 28 27 27 29 33 36 40 41
40 39 42 40 40 41 41 41 39 39 38 31 24 23 25 27 24 17 17 19 11 12 14 7 8 7 9 7 7 11 13 13 16 18 26 28 28 30 30 38 34 42 38
36 38 36 38 38 39 37 35 35 33 31 28 28 27 27 27 17 15 17 18 11 10 13 10 11 9 9 7 9 8 10 14 20 20 23 27 27 29 35 36 35 43 39
37 37 37 38 38 35 33 34 33 30 27 25 24 24 26 24 18 15 18 15 11 10 8 11 8 6 8 10 7 6 10 17 19 19 22 23 24 29 32 28 36 41 40
36 36 40 36 31 28 31 32 30 27 25 26 26 25 22 19 17 17 17 15 14 10 8 9 6 5 8 8 8 9 12 16 17 19 20 21 20 24 24 27 29 40 37
35 39 30 28 29 30 31 30 28 26 25 25 20 18 19 16 9 13 13 13 17 11 9 6 4 5 6 9 8 10 13 12 14 16 14 19 21 24 26 30 31 29 10
32 28 30 32 33 34 30 28 26 26 18 17 20 20 17 12 10 10 11 13 12 10 10 5 3 5 7 8 10 13 12 12 14 18 21 24 24 30 31 31 34 30 27
27 30 32 33 31 31 29 28 24 20 21 21 21 19 15 13 11 8 11 17 12 7 5 3 5 5 5 9 10 11 14 18 19 20 17 19 23 25 23 25 32 30 28
29 29 31 31 30 32 31 27 24 23 25 24 23 21 18 18 13 12 15 14 12 10 4 3 2 3 6 8 10 13 16 20 17 16 18 18 23 19 20 28 27 27 21
25 27 30 32 34 32 29 24 28 25 19 15 14 14 16 17 15 11 9 9 8 12 10 7 6 7 10 9 11 13 16 19 19 18 20 21 23 21 21 20 27 23 21
24 27 29 30 30 27 25 22 20 17 16 16 16 15 17 17 16 13 12 12 12 11 8 6 7 7 9 8 10 13 14 14 16 18 20 20 25 24 21 16 30 27 24
27 27 27 25 24 24 23 19 19 19 21 18 17 16 15 16 14 13 9 9 9 7 8 6 5 6 5 7 10 13 13 15 16 19 21 22 24 25 24 19 16 29 33
29 28 25 24 24 24 21 20 21 21 22 21 20 18 17 18 15 11 9 9 8 8 7 4 5 5 4 7 10 14 14 16 17 19 21 21 21 24 22 24 23 17 31
30 27 26 25 23 20 19 19 20 20 20 20 19 18 19 18 14 13 11 10 8 6 5 6 9 10 9 9 10 14 14 15 16 17 20 20 20 24 25 24 25 25 25
27 26 24 24 23 22 19 15 16 15 15 19 17 19 20 17 15 13 13 12 8 8 13 14 12 10 11 10 10 14 12 14 18 20 19 21 23 22 24 23 24 25 23
24 23 25 25 23 20 19 17 11 11 11 11 12 13 18 10 14 16 13 10 11 13 14 13 12 11 10 9 10 13 14 16 19 19 20 18 20 22 22 23 25 24 23
26 27 26 24 22 21 20 20 19 12 9 12 11 11 10 15 17 15 14 14 13 13 13 12 11 9 9 8 8 10 12 14 16 17 20 20 17 22 22 23 23 23 22
26 25 24 22 19 18 17 16 17 16 15 13 12 12 11 17 20 18 17 15 17 12 12 11 10 8 7 6 7 5 9 11 16 17 20 20 18 19 21 22 21 21 21
24 23 21 18 18 18 17 18 16 16 17 20 21 20 20 19 18 17 16 13 17 14 11 11 9 8 7 8 8 9 9 11 14 16 18 19 17 17 22 24 20 21 19
22 21 20 20 20 19 19 19 18 18 18 21 22 23 22 20 17 15 17 19 17 14 12 11 10 8 7 8 9 8 8 8 12 15 17 18 16 16 18 20 21 17 19
20 19 18 20 21 20 20 20 19 20 19 21 21 21 20 20 20 23 22 18 15 14 13 13 9 7 6 5 5 5 5 6 8 12 15 18 15 16 16 19 21 18 19
15 15 18 18 19 21 20 21 22 22 22 22 21 21 19 17 21 22 21 17 14 14 13 10 9 6 6 5 4 3 3 5 6 9 12 16 14 13 16 18 19 18 19
16 17 19 20 21 22 24 26 23 24 22 22 25 25 22 11 27 25 20 18 16 15 12 8 6 6 6 6 6 6 6 7 7 8 10 13 13 12 15 17 17 20 23
10 17 20 20 20 26 27 25 24 26 26 26 29 29 24 20 28 24 21 17 15 15 11 7 4 4 4 5 7 9 10 9 8 7 8 10 12 11 14 16 18 21 24
6 18 20 18 24 28 28 28 27 26 27 28 29 31 24 25 29 26 22 18 17 14 11 8 6 5 5 6 7 8 9 9 10 10 9 9 12 13 12 16 17 19 21
12 16 23 22 24 24 28 29 30 31 29 29 30 30 28 33 31 28 23 21 18 14 12 9 8 6 7 7 7 7 6 6 7 6 5 8 11 13 14 16 16 18 19
Wind_Direction
210 212 214 220 224 229 231 236 237 243 249 253 257 261 261 239 225 213 207 237 237 264 257 206 250 256 275 304 306 306 309 315 274 306 316 323 326 329 333 331 326 325 312
211 209 213 216 221 225 230 233 238 242 245 249 256 261 254 238 237 222 212 209 234 254 217 232 237 245 263 280 289 300 306 317 315 306 317 323 325 330 329 329 327 325 313
207 208 211 215 215 219 224 231 238 242 246 251 251 249 252 236 243 221 212 213 245 241 221 225 229 228 281 291 301 306 314 318 325 315 310 324 326 329 330 332 325 326 316
205 206 209 212 215 216 219 227 234 240 241 239 244 245 237 235 238 229 210 216 232 192 216 219 202 250 269 286 301 312 322 327 327 318 320 326 325 329 331 324 324 328 321
201 205 212 212 209 210 216 223 233 236 239 237 236 229 228 231 226 215 211 205 195 211 225 199 226 234 288 303 314 326 335 332 326 328 326 323 322 327 326 322 319 319 324
201 208 207 204 201 205 211 219 227 230 233 232 229 231 234 220 210 211 229 213 204 195 210 213 212 274 284 302 318 335 341 335 332 336 324 311 318 317 323 323 319 321 325
203 200 202 199 197 200 208 214 219 222 230 225 221 214 203 199 198 190 225 220 186 196 203 192 224 258 294 315 326 345 1 358 356 345 333 326 322 331 329 323 318 317 316
196 197 197 190 187 190 203 204 206 211 208 202 198 195 182 187 187 203 199 185 179 181 208 229 260 277 326 334 355 17 18 9 9 9 1 352 344 342 337 333 316 315 322
186 187 186 179 176 186 189 193 199 197 189 191 190 178 176 161 173 176 177 170 170 156 204 191 131 18 18 20 17 18 10 6 9 7 5 356 352 356 355 354 342 338 337
172 175 177 178 178 178 184 193 187 189 184 174 165 171 174 167 169 167 168 147 145 132 125 110 71 55 48 27 13 16 6 4 9 6 5 12 13 13 2 12 8 348 345
159 162 166 170 173 178 177 175 168 157 149 157 163 172 165 162 152 158 167 160 149 148 145 111 92 66 47 21 26 24 12 10 18 14 13 13 15 14 8 16 22 13 351
146 150 154 158 155 158 157 148 145 157 162 158 159 148 149 154 156 164 162 161 151 166 144 116 95 63 41 52 45 36 30 23 22 20 22 17 13 14 12 10 354 19 27
146 146 144 150 151 151 146 158 164 163 160 158 160 148 143 153 158 159 155 148 143 145 123 118 94 67 72 96 52 40 30 27 24 22 18 16 17 21 24 21 30 25 25
133 134 142 141 138 145 154 163 162 161 160 164 161 155 155 159 163 164 160 152 140 142 133 110 110 98 87 107 54 39 31 28 28 29 25 29 31 30 28 24 22 32 27
129 133 133 139 141 134 132 137 155 164 177 175 179 176 169 176 179 174 171 160 144 122 131 115 110 97 84 75 55 30 31 39 33 25 22 26 29 30 33 34 35 38 33
130 129 138 140 136 134 127 117 142 158 165 181 197 203 202 195 166 160 157 152 147 142 119 108 99 92 81 69 51 48 45 31 31 30 28 21 20 27 33 39 38 42 38
137 139 142 147 145 144 142 135 121 117 140 153 171 193 208 170 164 156 156 145 137 145 116 112 105 97 80 69 64 50 40 35 32 37 36 34 34 32 38 41 41 43 49
147 148 149 151 156 157 158 153 147 142 130 119 131 144 155 153 154 156 154 144 132 118 115 118 109 100 89 61 32 72 48 42 37 36 36 39 45 42 42 42 46 47 53
149 152 152 152 160 161 157 149 147 149 141 133 130 133 137 142 147 153 153 148 138 128 124 121 99 92 83 52 86 93 62 51 40 40 41 42 48 48 46 47 58 57 73
142 147 150 150 151 156 158 155 153 149 148 146 147 148 150 151 146 140 145 145 139 137 133 123 115 103 81 78 103 97 67 61 49 46 44 43 54 53 46 45 51 66 70
148 153 158 154 160 164 168 169 163 160 161 158 160 163 162 159 147 143 141 141 140 141 130 125 121 114 87 78 97 86 62 63 57 49 44 47 57 53 53 50 57 75 81
162 173 178 173 165 169 180 184 176 170 168 167 171 169 166 153 155 154 146 138 135 135 136 131 121 103 66 51 62 52 96 80 76 54 48 49 62 60 58 56 63 74 91
191 181 180 190 188 187 182 188 182 174 173 175 174 175 174 162 165 157 146 139 139 140 143 142 127 101 62 60 65 74 104 97 74 54 55 52 62 70 64 66 77 84 100
174 202 197 187 181 185 182 177 180 179 176 175 178 180 177 167 165 157 149 143 140 143 145 138 120 88 69 72 84 91 99 81 69 64 67 64 65 84 79 79 90 94 101
204 198 206 196 180 178 178 180 183 184 182 178 177 181 180 177 169 159 154 149 146 142 133 121 107 105 92 83 95 106 94 75 74 82 80 81 76 94 96 88 96 100 105
167 183 200 187 181 178 177 178 185 189 186 184 181 177 174 169 168 163 161 158 154 148 138 126 114 108 93 84 86 106 102 85 79 73 85 85 92 97 101 99 104 103 99